Regional Weather Roundup
Issued by NWS

Home | Current Version | Previous Version | Graphics & Text | Print | Product List | Glossary On
Versions: 1 2 3 4 5 6 7 8 9 10 11 12 13 14 15 16 17 18 19 20 21 22 23 24 25 26 27 28
000
ASUS45 KSLC 100510
RWRUT

UTAH REGIONAL WEATHER ROUNDUP
NATIONAL WEATHER SERVICE SALT LAKE CITY UT
1000 PM MST SAT DEC 09 2017

UTZ001>011-023>025-100600-

NORTHERN UTAH

CITY           SKY/WX    TMP DP  RH WIND       PRES   REMARKS
BRIGHAM CITY   CLEAR     22  17  81 CALM      30.64S
HILL AFB       CLEAR     24  16  71 E13       30.61S WCI  13
LOGAN          CLOUDY    23  17  78 CALM      30.66S
OGDEN          CLEAR     23  17  78 S8        30.62S WCI  14
SALT LAKE CITY PTCLDY    27  23  85 CALM      30.64R
TOOELE VALLEY  PTCLDY    18  14  86 S6        30.63F WCI   9
WENDOVER       MOCLDY    20  14  77 CALM      30.64R
HEBER CITY       N/A     14   9  79 CALM      30.59S
WEST JORDAN    CLEAR     22  17  83 CALM      30.63S

$$

UTZ011>015-024>027-100600-

CENTRAL/NORTHEAST UTAH

CITY           SKY/WX    TMP DP  RH WIND       PRES   REMARKS
PROVO AIRPORT  PTCLDY    21  18  88 CALM      30.64R
MOAB/CANYONLAN MOCLDY    22   4  46 S3        30.54R
DELTA          MOCLDY    19  10  68 CALM      30.62R
PRICE          PTCLDY    21   2  43 N8        30.53R WCI  11
ROOSEVELT      CLOUDY    18   9  68 CALM      30.59R
VERNAL         CLOUDY    20   7  57 NW3       30.57S

$$

UTZ013>016-019>022-027-100600-

SOUTHERN UTAH

CITY           SKY/WX    TMP DP  RH WIND       PRES   REMARKS
BRYCE CANYON   CLEAR     16  -6  37 W10       30.58R WCI   4
CEDAR CITY     PTCLDY    22  11  62 CALM      30.56S
MILFORD        PTCLDY    17   8  67 NW3       30.59S
ST GEORGE      PTCLDY    40   9  28 NE3       30.48R
HANKSVILLE     MOCLDY    21   3  45 CALM      30.57S
BLANDING         N/A     33   2  27 CALM      30.57S

$$

REGIONAL REPORTS     COLORADO/ARIZONA

CITY           SKY/WX    TMP DP  RH WIND       PRES   REMARKS
CRAIG, CO      CLOUDY    11   7  84 CALM      30.57R
GRAND JUNCTION CLOUDY    26   7  44 E5        30.55R WCI  20
RIFLE, CO      CLOUDY    20   6  55 CALM      30.58R
MONTROSE, CO   CLOUDY    20   3  48 SE7       30.58R WCI  11
CORTEZ, CO     CLOUDY    17   2  51 E5        30.51R WCI  10
COLORADO CITY    N/A     23   3  42 CALM      30.52R
PAGE, AZ       CLEAR     37  15  40 CALM      30.51R
GRAND CANYON   PTCLDY    20  -2  38 NE5       30.52R WCI  13
KINGMAN, AZ    CLEAR     42   5  21 CALM      30.40R
FLAGSTAFF, AZ  PTCLDY    22  -1  36 CALM      30.50S

$$

REGIONAL REPORTS    NEVADA/IDAHO/WYOMING

CITY           SKY/WX    TMP DP  RH WIND       PRES   REMARKS
LAS VEGAS, NV  PTCLDY    49  11  21 SW8       30.38R
ELY, NY        PTCLDY    15  -1  49 S12       30.59R WCI   2
ELKO, NV       MOCLDY    20  16  84 E3        30.59R
POCATELLO, ID  FOG       14  11  87 CALM      30.65S VSB 1/4
BURLEY, ID     CLOUDY    20  18  92 NE6       30.64S FOG     WCI  12
FORT BRIDGER,    N/A     31   4  31 SW8       30.58S WCI  24
EVANSTON, WY   CLOUDY    27  11  51 S9        30.57R WCI  18
ROCK SPRINGS,  CLOUDY    32   9  38 W18       30.50S WCI  20

$$




USA.gov is the U.S. government's official web portal to all federal, state and local government web resources and services.